Torna al catalogo

THOR ABLESTAR DEB

AttivoPO
NORAD 745·DEBRIS·🇺🇸 United States

Lanciato Sep 28, 1963 da Vandenberg Space Force Base

Loading…

Prossimi Passaggi (prossime 24 ore)

TLE

AggiornatoSource: Space-Track

Epoca: Sep 14, 2026, 05:04 UTC

1 00745U 63038E   26257.21174593  .00000168  00000-0  22699-3 0  9996
2 00745  89.9874 335.9806 0018665  40.0747 347.3205 13.55632988103496

Traccia THOR ABLESTAR DEB in tempo reale con AllMySat

Download on the App Store